Home   Weather   Ålgård   Past weeks

Flag for Norway Past Weather in Ålgård, Norway — Yesterday and Last 2 Weeks

Now
23 °F

Passing clouds.


Feels Like: 18 °F
Forecast: 31 / 40 °F
Wind: 3 mph from Southeast

Location: Stavanger / Sola

Current Time: Jan 16, 2017 at 12:07:22 pm

Latest Report: Jan 16, 2017 at 11:20 am


Visibility: N/A

Pressure: 30.39 "Hg

Humidity: 63%

Dew Point: 12 °F

Location of ÅlgårdLocation

Past Weather in Ålgård — Graph

°F

Ålgård Temperature Yesterday

Maximum temperature yesterday: 30 °F (at 12:20 am)
Minimum temperature yesterday: 18 °F (at 9:50 pm)
Average temperature yesterday: 24 °F

High & Low Weather Summary for the Past Weeks

 TemperatureHumidityPressure
High45 °F (Jan 3, 8:20 am)100% (Jan 2, 11:20 pm)30.63 "Hg (Jan 2, 11:20 pm)
Low16 °F (Jan 16, 4:50 am)46% (Jan 5, 7:20 pm)28.53 "Hg (Jan 11, 9:20 am)
Average36 °F81%29.79 "Hg
* Reported Jan 1 10:20 am — Jan 16 10:50 am, Ålgård, Weather by CustomWeather, © 2017

Note: Actual official high and low records may vary slightly from our data, if they occured in-between our weather recording intervals... More about our weather records

Advertising

Ålgård Weather History for the Previous 24 Hours

Scroll right to see more
 ConditionsComfort  
Time TempWeatherWind HumidityBarometerVisibility
10:50 am
Mon, Jan 16
21 °FPassing clouds.7 mph68%30.36 "HgN/A
10:20 am18 °FSunny.3 mph79%30.36 "Hg10 mi
9:50 am16 °FSunny.No wind79%30.36 "Hg10 mi
9:20 am18 °FSunny.2 mph79%30.36 "Hg10 mi
8:50 am18 °FClear.9 mph73%30.36 "Hg10 mi
8:20 am16 °FPassing clouds.6 mph73%30.33 "HgN/A
7:50 am18 °FClear.3 mph68%30.33 "Hg10 mi
7:20 am18 °FClear.2 mph73%30.33 "Hg10 mi
6:50 am18 °FClear.7 mph79%30.33 "Hg10 mi
6:20 am16 °FClear.2 mph79%30.30 "Hg10 mi
5:50 am16 °FPassing clouds.5 mph86%30.30 "HgN/A
4:50 am16 °FClear.No wind86%30.30 "Hg10 mi
3:50 am18 °FClear.3 mph79%30.30 "Hg10 mi
2:50 am18 °FClear.No wind79%30.30 "Hg10 mi
1:50 am18 °FClear.3 mph86%30.27 "Hg10 mi
12:50 am19 °FClear.2 mph79%30.27 "Hg10 mi
12:20 am18 °FClear.1 mph86%30.27 "Hg10 mi
11:50 pm
Sun, Jan 15
18 °FClear.2 mph86%30.27 "Hg10 mi
11:20 pm18 °FClear.No wind86%30.27 "Hg10 mi
10:50 pm18 °FClear.2 mph86%30.24 "Hg10 mi
10:20 pm21 °FClear.2 mph86%30.24 "Hg10 mi
9:50 pm18 °FClear.2 mph93%30.24 "Hg10 mi
9:20 pm19 °FClear.1 mph86%30.21 "Hg10 mi
8:50 pm21 °FClear.No wind86%30.21 "Hg10 mi
8:20 pm19 °FClear.3 mph86%30.21 "Hg10 mi
7:50 pm21 °FClear.No wind86%30.21 "Hg10 mi
7:20 pm21 °FClear.No wind86%30.21 "Hg10 mi
6:50 pm23 °FClear.No wind80%30.21 "Hg10 mi
6:20 pm25 °FClear.No wind80%30.18 "Hg10 mi
5:50 pm27 °FClear.No wind74%30.18 "Hg10 mi
5:20 pm25 °FClear.2 mph74%30.15 "Hg10 mi
4:50 pm27 °FClear.3 mph74%30.15 "Hg10 mi
4:20 pm28 °FClear.1 mph69%30.15 "Hg10 mi
3:50 pm28 °FPassing clouds.5 mph69%30.15 "HgN/A
3:20 pm28 °FSunny.3 mph69%30.12 "Hg10 mi
2:50 pm30 °FPassing clouds.3 mph64%30.12 "HgN/A
2:20 pm30 °FSunny.2 mph64%30.12 "Hg10 mi
1:50 pm28 °FSunny.3 mph74%30.12 "Hg10 mi
1:20 pm28 °FSunny.6 mph80%30.09 "Hg10 mi
12:50 pm28 °FSunny.No wind74%30.09 "Hg10 mi
12:20 pm28 °FClear.No wind74%30.09 "HgN/A
Weather by CustomWeather, © 2017

See weather overviewHow to use our weather pages